FW8671 Weather Reports


time (UTC)temp
F
wind
direction
speed
knots
gust
knots
rain 1hr
in
rain 24hr
in
rain mn
in
humidity
%
barometer
mb
20260504194749 61 219 7.8 15.6 0.00 0.00 0.00 72 1013.2
20260504193745 60 254 8.7 19.1 0.00 0.00 0.00 72 1013.3
20260504192731 61 247 7.8 19.1 0.00 0.00 0.00 72 1013.3
20260504191702 61 215 7.8 18.2 0.00 0.00 0.00 71 1013.4
20260504190653 60 245 10.4 18.2 0.00 0.00 0.00 72 1013.4
20260504185715 60 223 10.4 19.1 0.00 0.00 0.00 72 1013.4
20260504184729 60 242 9.6 19.1 0.00 0.00 0.00 71 1013.8
20260504183751 60 218 8.7 18.2 0.00 0.00 0.00 71 1013.9
20260504182754 60 205 10.4 19.1 0.00 0.00 0.00 72 1013.8
20260504181727 60 215 9.6 19.1 0.00 0.00 0.00 73 1014.1
20260504180721 60 221 8.7 18.2 0.00 0.00 0.00 73 1014.1
20260504175741 61 220 7.8 17.4 0.00 0.00 0.00 73 1014.1
20260504174736 60 181 8.7 18.2 0.00 0.00 0.00 74 1014.1
20260504173708 59 238 8.7 20.0 0.00 0.00 0.00 74 1014.2
20260504172718 58 213 10.4 20.0 0.00 0.00 0.00 75 1014.2
20260504170533 59 216 9.6 16.5 0.00 0.00 0.00 74 1014.6
20260504160327 59 207 7.8 14.8 0.00 0.00 0.00 71 1015.0
20260504150254 60 230 6.1 16.5 0.00 0.00 0.00 63 1015.6
20260504130810 57 249 7.8 15.6 0.00 0.00 0.00 64 1016.2
20260504110521 52 275 3.5 10.4 0.00 0.00 0.00 66 1016.2
20260504100315 51 222 2.6 7.0 0.00 0.00 0.00 67 1016.0
20260504081027 51 245 1.7 4.3 0.00 0.00 0.00 65 1015.5
20260504045509 52 262 2.6 6.1 0.00 0.00 0.00 64 1014.7
20260504043325 52 236 1.7 5.2 0.00 0.00 0.00 63 1015.0
20260504041135 52 252 0.9 3.5 0.00 0.00 0.00 63 1014.5
20260504040109 51 266 0.9 2.6 0.00 0.00 0.00 64 1014.6
20260504035102 52 257 1.7 3.5 0.00 0.00 0.00 64 1014.6
20260504034114 52 269 1.7 6.1 0.00 0.00 0.00 64 1014.4
20260504033103 52 277 1.7 6.1 0.00 0.00 0.00 63 1014.4
20260504030859 52 243 0.9 5.2 0.00 0.00 0.00 61 1014.3
20260504025848 52 261 0.9 2.6 0.00 0.00 0.00 61 1014.3
20260504024853 52 266 0.9 4.3 0.00 0.00 0.00 61 1014.3
20260504021613 51 266 0.0 0.0 0.00 0.00 0.00 52 1014.3
20260504020638 51 266 0.0 0.0 0.00 0.00 0.00 52 1014.3
20260504015703 52 265 0.0 0.0 0.00 0.00 0.00 53 1014.3
20260504013520 53 266 0.0 0.0 0.00 0.00 0.00 46 1014.1
20260504012535 54 266 0.0 0.9 0.00 0.00 0.00 45 1014.0
20260504011554 54 266 0.0 0.0 0.00 0.00 0.00 44 1013.9
20260504010556 54 266 0.0 0.9 0.00 0.00 0.00 42 1013.8
20260504005540 55 266 0.0 0.9 0.00 0.00 0.00 40 1013.6
20260504004509 56 266 0.0 1.7 0.00 0.00 0.00 38 1013.4
20260504003502 56 266 0.9 1.7 0.00 0.00 0.00 38 1013.3
20260504002451 56 265 0.0 0.9 0.00 0.00 0.00 36 1013.2
20260504001449 57 265 0.9 4.3 0.00 0.00 0.00 36 1013.1
20260503235340 58 295 1.7 7.0 0.00 0.00 0.00 34 1012.9
20260503234329 58 299 2.6 7.0 0.00 0.00 0.00 33 1012.7
20260503233317 58 275 2.6 10.4 0.00 0.00 0.00 32 1012.6
20260503232312 59 273 5.2 13.0 0.00 0.00 0.00 32 1012.5
20260503231319 59 289 5.2 13.0 0.00 0.00 0.00 31 1012.4
20260503230338 59 323 6.1 13.9 0.00 0.00 0.00 31 1012.4
20260503225343 59 324 7.0 18.2 0.00 0.00 0.00 31 1012.3
20260503224351 59 321 7.8 18.2 0.00 0.00 0.00 31 1012.3
20260503223344 60 324 6.1 13.0 0.00 0.00 0.00 31 1012.3
20260503222348 60 248 5.2 14.8 0.00 0.00 0.00 32 1012.1
20260503221335 60 312 6.1 14.8 0.00 0.00 0.00 32 1012.1
20260503215218 59 325 5.2 13.0 0.00 0.00 0.00 33 1012.1
20260503214201 59 324 5.2 14.8 0.00 0.00 0.00 34 1012.1
20260503213133 59 325 6.1 17.4 0.00 0.00 0.00 34 1011.9
20260503212140 59 325 8.7 18.2 0.00 0.00 0.00 34 1011.9
20260503211137 59 325 7.8 18.2 0.00 0.00 0.00 34 1011.9
20260503210157 58 294 8.7 17.4 0.00 0.00 0.00 35 1011.8
20260503205145 58 325 7.0 20.0 0.00 0.00 0.00 35 1011.9
20260503204155 57 325 7.8 20.0 0.00 0.00 0.00 38 1011.8
20260503203155 57 316 7.0 16.5 0.00 0.00 0.00 37 1011.8
20260503202123 57 325 7.8 20.9 0.00 0.00 0.00 38 1011.9
20260503201054 57 289 9.6 20.9 0.00 0.00 0.00 38 1011.9
20260503200046 58 284 7.8 15.6 0.00 0.00 0.00 37 1012.2
20260503195105 57 298 7.8 22.6 0.00 0.00 0.00 39 1012.2